| time (UTC) | temp C | wind direction | speed KPH | gust KPH | rain 1hr cm | rain 24hr cm | rain mn cm | humidity % | barometer mb |
| 20260503174539 | 5 | 70 | 0.0 | 0.0 | 0.00 | 0.05 | 0.03 | 89 | 1019.6 |
| 20260503173034 | 5 | 70 | 0.0 | 0.0 | 0.00 | 0.05 | 0.03 | 89 | 1019.6 |
| 20260503171522 | 5 | 70 | 0.0 | 0.0 | 0.00 | 0.05 | 0.03 | 89 | 1019.7 |
| 20260503081544 | 13 | 64 | 3.2 | 11.3 | 0.00 | 0.03 | 0.03 | 85 | 1020.1 |
| 20260503071543 | 15 | 74 | 8.0 | 12.9 | 0.00 | 0.03 | 0.03 | 79 | 1020.1 |
| 20260503054534 | 17 | 48 | 6.4 | 16.1 | 0.00 | 0.03 | 0.03 | 70 | 1019.9 |
| 20260503053033 | 18 | 66 | 4.8 | 12.9 | 0.00 | 0.03 | 0.03 | 70 | 1020.1 |
| 20260503051537 | 17 | 64 | 4.8 | 12.9 | 0.00 | 0.03 | 0.03 | 72 | 1020.3 |
| 20260503050032 | 17 | 85 | 4.8 | 16.1 | 0.00 | 0.03 | 0.03 | 72 | 1020.2 |
| 20260503044532 | 17 | 79 | 6.4 | 12.9 | 0.00 | 0.03 | 0.03 | 71 | 1020.3 |
| 20260503043027 | 17 | 50 | 4.8 | 16.1 | 0.00 | 0.03 | 0.03 | 74 | 1020.3 |
| 20260503041525 | 17 | 78 | 6.4 | 14.5 | 0.00 | 0.03 | 0.03 | 75 | 1020.5 |
| 20260503040022 | 17 | 68 | 8.0 | 16.1 | 0.00 | 0.03 | 0.03 | 77 | 1020.7 |
| 20260503034521 | 16 | 97 | 8.0 | 16.1 | 0.00 | 0.03 | 0.03 | 77 | 1020.7 |
| 20260503033030 | 16 | 58 | 4.8 | 17.7 | 0.00 | 0.03 | 0.03 | 77 | 1020.9 |
| 20260503031518 | 16 | 92 | 6.4 | 12.9 | 0.00 | 0.03 | 0.03 | 76 | 1021.0 |
| 20260503030033 | 17 | 59 | 6.4 | 19.3 | 0.00 | 0.03 | 0.03 | 74 | 1021.2 |
| 20260503024523 | 17 | 72 | 6.4 | 17.7 | 0.00 | 0.03 | 0.03 | 73 | 1021.3 |
| 20260503023012 | 17 | 8 | 3.2 | 12.9 | 0.00 | 0.03 | 0.03 | 75 | 1021.5 |
| 20260503021512 | 16 | 78 | 6.4 | 14.5 | 0.00 | 0.03 | 0.03 | 76 | 1021.8 |
| 20260503020010 | 16 | 53 | 9.7 | 22.5 | 0.00 | 0.03 | 0.03 | 77 | 1021.9 |
| 20260503014509 | 17 | 62 | 8.0 | 19.3 | 0.00 | 0.03 | 0.03 | 73 | 1022.1 |
| 20260503013005 | 16 | 49 | 4.8 | 19.3 | 0.00 | 0.03 | 0.03 | 75 | 1022.6 |
| 20260503011504 | 16 | 76 | 4.8 | 16.1 | 0.00 | 0.03 | 0.03 | 76 | 1022.7 |
| 20260503010107 | 15 | 72 | 4.8 | 14.5 | 0.00 | 0.03 | 0.03 | 77 | 1022.9 |
| 20260503004554 | 15 | 63 | 8.0 | 20.9 | 0.00 | 0.03 | 0.03 | 78 | 1023.1 |
| 20260503003059 | 15 | 83 | 8.0 | 16.1 | 0.00 | 0.03 | 0.03 | 80 | 1023.3 |
| 20260503001548 | 14 | 19 | 9.7 | 16.1 | 0.00 | 0.03 | 0.03 | 81 | 1023.6 |
| 20260503000047 | 13 | 88 | 9.7 | 16.1 | 0.00 | 0.03 | 0.03 | 86 | 1023.7 |
| 20260502234540 | 12 | 51 | 8.0 | 16.1 | 0.00 | 0.03 | 0.03 | 89 | 1023.9 |
| 20260502233036 | 12 | 339 | 1.6 | 8.0 | 0.00 | 0.03 | 0.03 | 91 | 1024.0 |
| 20260502231535 | 11 | 60 | 6.4 | 12.9 | 0.00 | 0.03 | 0.03 | 92 | 1023.9 |
| 20260502230032 | 11 | 81 | 3.2 | 12.9 | 0.00 | 0.03 | 0.03 | 92 | 1023.7 |
| 20260502224529 | 11 | 35 | 3.2 | 8.0 | 0.00 | 0.03 | 0.03 | 93 | 1023.6 |
| 20260502223025 | 10 | 78 | 3.2 | 6.4 | 0.00 | 0.03 | 0.03 | 93 | 1024.0 |
| 20260502221522 | 8 | 78 | 0.0 | 4.8 | 0.00 | 0.03 | 0.03 | 93 | 1023.9 |
| 20260502220023 | 7 | 78 | 0.0 | 0.0 | 0.00 | 0.03 | 0.03 | 91 | 1023.9 |
| 20260502214518 | 6 | 78 | 0.0 | 0.0 | 0.03 | 0.03 | 0.03 | 89 | 1023.6 |
| 20260502213034 | 6 | 78 | 0.0 | 0.0 | 0.03 | 0.03 | 0.03 | 87 | 1023.3 |
| 20260502211516 | 6 | 78 | 0.0 | 0.0 | 0.03 | 0.03 | 0.03 | 87 | 1023.2 |
| 20260502210015 | 6 | 78 | 0.0 | 0.0 | 0.03 | 0.03 | 0.03 | 87 | 1023.0 |
| 20260502204513 | 6 | 78 | 0.0 | 0.0 | 0.00 | 0.00 | 0.00 | 87 | 1022.8 |
| 20260502203010 | 6 | 78 | 0.0 | 0.0 | 0.00 | 0.00 | 0.00 | 87 | 1022.8 |
| 20260502201515 | 6 | 78 | 0.0 | 0.0 | 0.00 | 0.00 | 0.00 | 87 | 1022.6 |
| 20260502200007 | 7 | 79 | 0.0 | 0.0 | 0.00 | 0.00 | 0.00 | 87 | 1022.6 |
| 20260502194506 | 7 | 79 | 0.0 | 0.0 | 0.00 | 0.00 | 0.00 | 87 | 1022.6 |
| 20260502193004 | 7 | 79 | 0.0 | 3.2 | 0.00 | 0.00 | 0.00 | 87 | 1022.5 |
| 20260502191503 | 7 | 79 | 0.0 | 1.6 | 0.00 | 0.00 | 0.00 | 87 | 1022.5 |
| 20260502190006 | 7 | 78 | 0.0 | 0.0 | 0.00 | 0.00 | 0.00 | 87 | 1022.2 |
| 20260502184604 | 7 | 78 | 0.0 | 0.0 | 0.00 | 0.00 | 0.00 | 86 | 1022.1 |
| 20260502183058 | 7 | 78 | 0.0 | 0.0 | 0.00 | 0.00 | 0.00 | 86 | 1022.2 |
| 20260502181609 | 8 | 78 | 0.0 | 0.0 | 0.00 | 0.00 | 0.00 | 88 | 1022.1 |